RH
47 67 84 84 84 77 67 54 41 40 39 41 40 36 30 22 19 18 35 53 58 53 32 22 20 24 24 29 30 33 54 49 36 33 36 32 39 36 48 52 45 43 46 44 55
19 21 42 76 71 50 48 38 44 37 41 34 35 33 32 22 32 12 37 50 55 33 24 22 23 24 26 27 31 39 47 33 27 30 39 37 41 52 57 60 57 54 49 60 65
17 16 16 25 38 38 36 34 37 38 35 34 36 35 22 19 30 11 32 36 36 27 23 20 17 24 25 24 31 37 40 29 28 31 36 46 56 50 61 77 56 61 63 69 72
16 14 14 14 17 25 26 28 32 32 30 24 22 27 15 20 14 12 29 26 24 25 20 18 20 27 29 33 27 41 28 28 31 32 37 56 53 48 54 56 48 54 61 72 76
16 14 12 11 16 21 26 25 28 29 26 22 18 21 14 14 12 14 24 20 20 23 20 23 27 26 33 27 31 37 32 30 30 33 34 47 57 61 54 48 48 60 60 78 78
20 19 15 15 17 17 24 20 26 23 21 19 18 20 27 11 13 16 22 22 23 23 22 25 29 24 26 30 35 34 33 32 28 32 46 50 75 49 56 51 57 61 65 69 70
20 22 21 16 17 18 21 20 20 24 19 16 19 27 12 13 14 17 22 23 25 24 24 22 29 27 26 32 27 30 41 34 34 37 45 45 86 73 66 56 63 60 63 64 70
21 21 20 16 13 17 20 23 19 20 17 14 17 24 14 11 14 17 22 22 24 25 24 22 24 27 24 23 27 34 36 51 31 38 48 49 70 78 66 72 67 71 71 73 76
14 20 19 16 14 20 21 16 18 20 16 13 22 17 12 12 13 18 22 24 22 26 26 21 22 23 25 34 35 34 48 40 38 39 44 57 78 60 64 67 84 71 90 89 87
15 19 20 15 15 20 22 13 14 15 14 14 10 14 11 12 14 18 21 22 20 21 26 22 23 31 34 46 72 54 49 43 44 40 46 55 60 58 53 69 91 84 94 96 96
17 18 18 15 19 19 22 22 35 23 15 16 15 13 12 14 14 20 24 20 18 23 20 21 36 44 35 30 36 36 42 45 38 39 55 60 94 64 58 62 86 84 89 95 96
32 20 17 16 21 22 28 34 51 50 33 14 15 14 15 18 15 20 25 21 18 22 16 28 28 30 26 23 36 38 47 49 41 34 42 54 88 71 56 66 68 94 95 95 91
48 40 18 14 22 37 39 58 46 42 39 18 16 15 16 17 22 27 28 29 24 20 23 22 22 25 24 31 44 46 51 50 52 44 48 57 93 76 58 55 53 64 86 94 96
55 41 28 17 30 30 51 47 46 35 94 31 17 20 15 16 26 26 28 33 24 26 29 21 20 33 31 33 40 60 38 42 50 60 93 56 97 77 59 65 57 67 88 95 94
67 43 28 26 29 40 46 50 45 69 99 17 19 18 14 20 23 26 28 29 36 31 28 27 30 44 40 36 32 47 40 50 52 70 74 77 94 87 55 73 71 76 84 94 95
67 55 49 44 44 58 59 60 67 95 98 24 19 19 15 17 21 25 37 31 35 36 23 26 23 32 36 30 32 35 57 63 54 75 98 83 79 94 89 89 76 82 78 89 94
70 58 43 39 69 65 72 86 99 100 27 24 24 18 19 24 24 32 76 70 78 84 75 28 23 29 32 39 35 46 76 93 89 95 87 77 74 96 69 74 80 86 85 85 95
78 65 57 57 77 78 85 100 99 68 27 32 24 21 22 29 29 28 36 62 65 83 79 74 49 35 35 39 46 50 73 97 99 96 81 51 87 94 54 59 72 77 81 78 89
65 82 91 99 94 88 98 100 98 50 40 30 26 26 30 30 43 38 42 60 65 76 88 88 34 30 37 38 37 54 81 64 94 86 96 64 79 64 55 65 69 79 83 86 86
84 92 100 99 94 93 99 99 77 39 35 33 31 29 27 32 44 56 46 60 72 59 60 83 90 28 35 38 34 49 46 88 92 98 94 66 80 98 87 89 80 86 90 87 85
89 98 100 99 92 97 100 94 64 58 62 66 36 36 29 40 47 45 52 55 57 62 60 79 88 65 45 60 59 60 83 70 74 89 99 97 95 85 92 90 90 88 89 90 88
97 100 100 98 99 100 98 72 65 68 96 47 42 30 32 36 50 57 49 60 51 57 77 67 91 85 61 48 42 49 60 74 94 93 87 90 87 84 81 81 84 87 88 86 86
99 99 99 100 100 99 81 94 97 95 96 47 40 36 31 32 62 38 50 56 58 57 82 71 91 90 88 84 51 53 51 62 74 82 94 91 81 59 59 73 79 89 88 87 87
99 99 100 100 99 91 94 96 96 78 54 42 38 34 32 30 33 44 62 54 58 66 65 62 84 85 77 71 76 80 83 69 77 95 96 85 89 62 67 75 81 87 87 87 85
99 98 87 99 99 99 98 95 94 94 94 65 40 40 51 68 62 51 52 63 61 70 55 80 84 80 61 38 50 69 88 91 95 83 90 80 82 70 75 75 84 87 88 87 87
99 98 95 97 94 96 96 97 92 98 90 87 57 38 38 61 63 69 67 67 71 65 92 88 84 57 83 63 66 76 67 71 84 81 78 78 74 54 64 64 77 88 91 90 90
98 94 92 97 99 98 95 96 95 96 97 43 38 40 33 43 44 47 49 55 63 86 93 91 89 81 82 58 83 82 84 81 79 80 71 83 72 64 67 60 78 93 92 92 92
Wind_Speed
10 11 11 11 10 10 7 5 4 5 6 6 7 8 10 5 6 13 12 13 13 18 18 12 7 1 0 4 2 2 3 4 6 7 8 11 13 7 7 9 11 16 17 25 39
10 11 11 11 11 10 8 6 6 6 7 7 7 8 10 5 8 18 14 14 13 12 12 9 7 12 2 4 3 3 3 5 6 5 8 12 11 12 9 15 17 20 19 25 32
9 11 12 11 10 10 9 7 6 6 5 7 8 8 8 2 8 8 18 11 11 9 13 11 7 2 1 1 4 4 2 5 7 7 8 9 9 8 11 10 17 24 24 20 26
9 10 12 12 11 10 9 8 7 7 6 7 9 8 7 5 2 14 18 10 8 13 10 10 11 5 3 4 4 3 3 7 6 6 8 4 4 9 10 12 19 18 21 19 21
10 10 11 12 12 10 10 9 7 8 8 8 8 7 5 4 5 16 14 8 9 9 11 9 9 6 6 6 6 4 8 9 7 6 12 1 1 10 14 17 18 19 19 18 18
10 12 12 13 12 11 11 10 7 6 7 7 6 5 4 0 3 14 11 7 7 10 10 10 6 9 4 7 1 6 9 12 3 4 6 7 6 6 14 18 19 18 18 18 18
11 11 13 13 13 14 13 10 7 6 7 6 6 5 2 5 5 13 9 6 4 6 7 9 6 5 7 6 1 8 10 12 9 4 4 11 4 9 16 21 18 21 17 18 19
9 11 14 15 14 14 12 8 5 7 6 5 3 4 2 1 2 15 11 1 4 5 6 6 6 6 5 7 7 5 3 6 3 4 5 6 4 10 12 18 19 19 18 18 19
8 13 14 16 14 12 8 5 5 2 1 3 4 3 4 1 5 15 9 6 10 7 9 9 7 0 9 12 2 1 6 14 8 4 2 4 4 8 10 16 19 19 18 18 20
9 12 14 16 15 11 6 2 4 3 4 4 6 2 3 3 5 15 9 7 5 9 7 4 2 4 6 6 3 9 12 9 10 3 7 6 2 8 11 11 13 19 18 18 20
7 10 14 15 12 11 5 5 3 2 8 4 6 2 3 8 3 15 12 8 8 7 2 3 5 6 11 5 5 10 12 11 14 4 3 4 5 7 15 14 16 19 20 20 21
3 8 12 14 9 8 4 3 2 1 2 3 1 4 2 5 3 16 19 3 4 4 7 3 6 8 12 5 8 11 9 9 15 16 10 6 8 4 12 14 15 18 20 21 24
3 1 10 11 6 5 6 3 0 2 3 3 2 3 2 7 4 9 10 7 4 5 6 6 6 8 11 7 12 10 7 13 13 15 8 6 5 4 5 15 19 20 19 19 22
6 1 4 5 1 1 2 3 5 5 2 3 1 2 2 2 2 6 8 1 1 5 6 3 7 9 10 8 10 6 13 15 12 9 2 7 3 6 12 18 21 23 24 22 24
9 6 4 3 1 3 2 2 2 2 4 3 2 2 1 2 0 5 7 2 4 4 3 3 7 7 6 9 11 5 20 11 7 8 5 2 2 7 13 19 23 23 24 22 21
12 9 9 7 4 4 3 3 3 4 6 3 2 2 2 3 2 1 5 4 1 4 2 1 4 3 5 14 3 17 11 7 5 3 2 5 3 6 5 10 19 18 22 22 22
16 15 12 9 6 10 7 2 3 3 1 2 2 1 3 3 3 3 3 6 4 3 6 2 3 3 10 7 5 14 9 4 4 2 3 5 5 2 6 8 9 15 20 21 20
18 13 10 8 10 12 4 1 3 1 2 1 2 2 1 4 2 2 2 3 7 4 1 3 2 6 9 4 5 7 7 4 3 4 5 6 2 4 10 9 9 12 15 19 22
24 19 10 8 10 13 1 2 3 2 4 5 2 2 3 2 0 2 4 3 4 4 3 3 2 3 4 4 5 7 5 4 3 5 3 2 5 2 17 16 17 18 18 21 21
22 9 5 8 10 4 2 4 3 2 2 2 4 2 4 5 3 2 0 1 3 3 1 2 1 1 1 5 5 6 3 2 2 5 5 6 4 4 16 17 18 20 19 20 20
12 4 3 11 10 1 3 4 3 3 4 2 3 2 1 4 4 3 4 3 2 1 3 1 2 2 1 5 5 4 4 3 2 1 1 4 2 3 3 5 12 14 14 17 19
7 3 6 13 2 0 2 4 2 4 2 3 2 1 3 4 3 3 4 4 4 4 2 2 2 1 3 3 2 3 3 3 3 5 3 3 4 3 3 4 7 11 11 13 15
3 3 2 1 3 3 2 2 2 3 3 4 4 1 2 3 3 4 5 4 4 1 1 2 0 1 5 4 3 2 3 3 3 1 4 2 4 4 12 10 7 9 11 12 15
4 4 2 0 0 4 5 3 4 3 1 1 2 2 2 2 2 4 4 3 3 4 4 1 1 4 4 5 2 1 1 3 2 0 2 5 9 12 11 11 10 9 10 11 13
2 3 4 5 4 4 4 7 5 6 4 3 2 7 5 3 2 4 4 4 3 4 2 2 2 2 4 4 2 4 4 5 4 6 4 5 8 9 3 6 6 4 8 12 15
5 4 1 2 6 9 9 8 11 6 9 5 5 8 5 2 1 7 6 5 4 4 2 1 2 1 3 3 2 5 7 5 5 7 10 9 12 5 1 4 7 6 8 13 13
4 2 3 6 4 5 5 7 11 11 6 2 9 5 5 5 10 9 7 7 5 6 3 2 3 1 3 2 4 4 6 8 3 4 3 4 5 7 7 8 5 5 5 8 9
Wind_Direction
360 1 359 358 354 350 339 333 322 321 325 318 316 320 328 315 293 31 30 335 331 332 342 360 10 203 260 92 49 296 276 36 6 327 323 342 328 360 9 305 316 341 328 322 326
352 356 357 358 353 349 340 328 320 321 326 324 323 322 326 314 284 53 353 342 341 349 354 347 8 320 92 6 70 35 303 11 337 328 330 329 326 357 335 318 337 322 318 325 320
346 349 353 357 352 348 343 322 312 316 329 337 334 335 339 282 270 33 351 344 345 340 307 310 341 265 312 10 47 354 304 332 323 334 336 335 3 329 358 337 340 325 329 336 321
339 344 347 347 349 345 347 327 307 299 300 320 335 332 308 290 7 355 345 342 348 332 343 343 1 353 350 3 29 303 326 345 320 346 309 343 330 353 34 344 336 328 325 331 324
332 336 343 342 343 335 339 326 310 302 289 300 318 332 315 184 28 341 340 343 338 319 12 356 24 338 3 343 343 223 340 319 287 294 323 262 350 338 7 351 346 339 332 331 328
330 331 336 339 336 332 327 322 293 312 318 304 311 306 252 249 351 351 349 352 348 329 32 19 358 312 309 292 267 355 299 285 261 336 64 334 37 19 352 355 347 342 339 339 334
325 330 329 334 334 332 325 323 278 290 312 314 317 309 335 80 12 1 355 350 354 359 5 8 345 342 299 322 73 280 280 280 200 47 59 340 61 23 6 342 344 348 344 340 341
323 328 325 328 334 330 329 329 293 286 292 317 322 300 51 125 49 8 359 98 339 305 319 317 294 269 286 256 241 239 183 327 42 71 76 351 356 21 6 359 346 344 345 339 339
343 326 326 327 331 329 330 339 333 343 253 328 300 220 111 58 25 358 3 350 307 265 279 282 254 207 359 339 4 163 331 322 326 124 150 109 330 13 19 4 348 346 345 341 340
350 326 326 327 332 330 323 16 2 314 326 272 270 257 41 10 336 350 353 328 300 290 261 275 65 34 10 24 10 309 308 304 291 57 8 328 321 10 22 18 350 346 344 344 346
343 331 324 328 332 336 343 334 253 216 42 25 16 2 35 331 297 13 349 304 239 266 326 91 49 13 340 1 300 307 301 292 345 45 330 305 32 24 24 8 1 352 349 348 347
338 324 325 327 333 352 7 16 38 317 265 90 65 103 50 321 336 13 356 351 319 22 356 159 37 355 311 342 359 328 322 358 311 341 313 270 95 44 36 6 11 358 351 347 346
232 310 329 332 333 13 57 63 61 290 272 111 32 25 344 330 50 355 5 318 1 34 360 72 356 331 334 32 352 332 34 337 307 313 279 318 99 14 33 12 3 5 359 354 355
208 184 340 338 331 353 39 20 12 358 53 151 158 66 315 342 71 22 3 14 79 25 340 76 16 1 342 9 348 321 7 322 311 315 316 54 287 32 3 4 4 360 358 353 351
194 157 98 144 45 30 334 31 309 299 322 51 86 326 346 35 325 45 20 293 46 345 279 81 3 354 356 338 318 284 310 295 286 282 329 343 81 340 9 355 358 356 353 352 351
190 182 155 127 130 146 150 173 295 62 241 114 91 58 214 39 47 76 12 43 357 303 8 71 140 46 332 308 87 329 309 280 232 237 236 241 141 40 11 356 347 352 349 350 350
185 176 183 165 160 164 159 300 35 205 104 119 73 95 43 18 61 34 63 29 31 22 25 192 66 97 6 339 353 352 353 356 354 359 223 252 49 265 33 18 344 354 346 351 349
175 170 167 176 167 159 139 255 177 126 50 268 115 149 359 360 54 355 213 95 60 2 3 348 338 12 356 28 297 339 32 97 270 342 303 260 86 187 57 17 357 2 353 352 354
151 140 131 145 161 158 87 191 230 155 140 161 143 189 144 129 267 293 46 73 49 24 75 19 117 140 64 336 5 326 41 165 268 218 276 250 84 226 6 3 3 5 358 356 354
146 132 114 154 153 135 113 253 160 53 105 262 187 222 190 146 176 197 155 54 119 48 274 112 297 105 3 211 49 101 325 39 325 6 321 328 62 357 344 351 356 360 355 353 352
126 124 121 143 138 114 201 165 135 59 28 141 244 159 43 146 171 143 115 150 130 128 84 159 123 277 136 22 11 356 14 349 162 14 201 325 31 221 297 325 354 351 356 347 351
143 125 163 149 119 287 178 150 122 121 20 254 285 303 182 149 133 151 135 68 140 128 155 88 89 316 77 29 0 326 53 38 100 307 285 185 291 170 182 30 1 348 355 348 347
100 111 139 101 175 177 120 100 104 130 178 216 192 287 303 151 108 128 99 107 140 166 125 137 38 2 330 340 221 328 99 128 146 143 252 98 262 130 29 12 358 351 354 355 345
131 122 122 229 314 137 158 172 153 259 187 258 118 95 155 137 319 138 113 165 136 84 98 128 121 160 174 211 137 321 48 69 77 176 279 238 307 343 2 351 350 359 351 356 353
113 154 172 173 219 175 165 139 137 169 218 320 261 233 174 134 76 147 118 128 168 146 86 96 166 121 287 296 195 213 189 184 163 236 172 276 305 318 337 335 325 332 343 354 356
136 140 34 110 129 150 174 200 169 151 159 200 239 185 182 141 243 181 136 175 174 132 90 332 135 105 289 155 292 271 253 245 199 233 262 262 284 66 360 346 352 348 352 349 353
127 84 119 144 147 144 199 174 182 128 215 332 197 122 150 85 73 75 65 74 106 136 144 151 123 131 259 33 347 316 229 189 199 196 190 235 239 354 356 349 346 352 360 336 342